Location: Clover
(42.5131°N, 114.6874°W)
Time: 09:23:38
(UTC+00:00)

Courier 1B - Pass Details

Date: 11 November 2024
Orbit: 962 x 1208 km, 28.3° (Epoch: 06 December)

Event Time Altitude Azimuth Distance (km) Brightness Sun altitude
Rises 03:10:24 0° 253° (WSW) 3,670 11.5 -31.4°
Reaches altitude 10° 03:14:12 10° 231° (SW) 2,754 10.3 -32.1°
Maximum altitude 03:17:53 15° 197° (SSW) 2,413 9.6 -32.8°
Enters shadow 03:18:49 15° 188° (S) 2,448 9.6 -33.0°
